TimeEDT,TemperatureF,Dew PointF,Humidity,Sea Level PressureIn,VisibilityMPH,Wind Direction,Wind SpeedMPH,Gust SpeedMPH,PrecipitationIn,Events,Conditions,WindDirDegrees,DateUTC
12:57 AM,68.0,62.1,81,30.15,10.0,Calm,Calm,-,N/A,,Clear,0,2013-08-27 04:57:00
1:57 AM,66.9,62.1,84,30.14,10.0,Calm,Calm,-,N/A,,Clear,0,2013-08-27 05:57:00
2:57 AM,66.9,62.1,84,30.12,10.0,NW,3.5,-,N/A,,Clear,310,2013-08-27 06:57:00
3:57 AM,64.9,61.0,87,30.10,10.0,Calm,Calm,-,N/A,,Clear,0,2013-08-27 07:57:00
4:57 AM,66.0,61.0,84,30.10,10.0,Calm,Calm,-,N/A,,Clear,0,2013-08-27 08:57:00
5:57 AM,64.9,61.0,87,30.10,10.0,Calm,Calm,-,N/A,,Clear,0,2013-08-27 09:57:00
6:57 AM,64.9,61.0,87,30.10,10.0,Calm,Calm,-,N/A,,Clear,0,2013-08-27 10:57:00
7:57 AM,72.0,64.0,76,30.11,10.0,Variable,3.5,-,N/A,,Clear,0,2013-08-27 11:57:00
8:57 AM,75.9,63.0,64,30.10,10.0,West,4.6,-,N/A,,Clear,270,2013-08-27 12:57:00
9:57 AM,79.0,63.0,58,30.11,10.0,West,5.8,-,N/A,,Clear,280,2013-08-27 13:57:00
10:57 AM,81.0,59.0,47,30.09,10.0,West,8.1,-,N/A,,Clear,270,2013-08-27 14:57:00
11:57 AM,82.0,59.0,45,30.08,10.0,SW,8.1,-,N/A,,Clear,220,2013-08-27 15:57:00
12:57 PM,82.0,62.1,51,30.06,10.0,SSW,11.5,-,N/A,,Clear,210,2013-08-27 16:57:00
1:57 PM,82.9,63.0,51,30.06,10.0,SSW,11.5,18.4,N/A,,Clear,210,2013-08-27 17:57:00
2:57 PM,82.0,63.0,52,30.04,10.0,SW,12.7,-,N/A,,Clear,220,2013-08-27 18:57:00
3:57 PM,82.0,63.0,52,30.03,10.0,SW,11.5,18.4,N/A,,Clear,220,2013-08-27 19:57:00
4:57 PM,82.0,64.0,54,30.03,10.0,SW,12.7,-,N/A,,Clear,220,2013-08-27 20:57:00
5:57 PM,80.1,64.0,58,30.01,8.0,SW,12.7,-,N/A,,Mostly Cloudy,220,2013-08-27 21:57:00
6:57 PM,79.0,64.9,62,30.01,10.0,SW,10.4,-,N/A,,Clear,230,2013-08-27 22:57:00
7:57 PM,79.0,64.0,60,30.02,10.0,SW,9.2,-,N/A,,Clear,230,2013-08-27 23:57:00
8:57 PM,79.0,64.9,62,30.03,10.0,SW,10.4,-,N/A,,Clear,230,2013-08-28 00:57:00
9:57 PM,79.0,66.0,64,30.03,10.0,SW,9.2,-,N/A,,Clear,230,2013-08-28 01:57:00
10:57 PM,79.0,64.9,62,30.04,10.0,SW,9.2,-,N/A,,Clear,230,2013-08-28 02:57:00
11:57 PM,78.1,66.0,66,30.04,10.0,SW,10.4,-,N/A,,Clear,230,2013-08-28 03:57:00